STARLINK-2374 (47913 NORAD) Tracking and Keplerian Element Data

This shows tracking and keplerian element data for the satellite.

Feedback or suggestion? Click here.




ElementValue
Catalog47913
NameSTARLINK-2374
Epoch Orbit195
Epoch Day173.91668981
Epoch Year2021
RAAN86.4572
Inclination53.0518
Eccentricity0.0001457
Argument of Perigee67.8554
Mean Anonmoly174.1481
Mean Motion15.06394248
Decay Rate4.93E-06
L11 47913U 21021BF 21173.91668981 .00000493 00000-0 52008-4 0 9997
L22 47913 53.0518 86.4572 0001457 67.8554 174.1481 15.06394248 1955

Live tracking and technical data element details for STARLINK-2374 (NORAD 47913). STARLINK-2374 can be tracked NOW for your location showing map with azimuth and elevation plus other details from your city location.

Track the satellite on the map from your city or location and see movement details for azimuth, elevation, latitude, longitude, range, height, and movement on the map or in text.







IsCatalogInMostPopularTable: catalog: 47913, numindb: 48
Update: records affected: 1



GetName: 47913 STARLINK-2374

Hit Count: updated at: Thu, 24 Jun 2021 02:30:51 GMT